JAI27W VOBL-VOMM

Flight info

Callsign JAI27W
Flight time 0h 32m
Altitude 17000
Route TULNA8A/09L TULNA W116 MMV
Aircraft B738/M-SDE2E3FGHIRWXY/LB1

Departure

Time 2026-05-06 16:05
Airport Kempegowda International Airport Bengaluru (VOBL)

Arrival

Time 2026-05-06 16:37
Airport Chennai International Airport (VOMM)
Time Latitude Longitude Altitude Speed Heading
2026-05-06 15:58 13.20533 77.70108 2991 ft 17 kts 269°
2026-05-06 15:58 13.20532 77.69960 2989 ft 23 kts 270°
2026-05-06 15:58 13.20532 77.69775 2990 ft 27 kts 271°
2026-05-06 15:58 13.20536 77.69571 2994 ft 29 kts 270°
2026-05-06 15:59 13.20537 77.69355 3000 ft 30 kts 270°
2026-05-06 15:59 13.20538 77.69130 3005 ft 32 kts 270°
2026-05-06 15:59 13.20539 77.68896 3009 ft 33 kts 271°
2026-05-06 15:59 13.20540 77.68701 3010 ft 8 kts 270°
2026-05-06 16:00 13.20540 77.68696 3010 ft 0 kts 270°
2026-05-06 16:00 13.20540 77.68690 3010 ft 1 kts 270°
2026-05-06 16:00 13.20541 77.68668 3010 ft 4 kts 275°
2026-05-06 16:00 13.20558 77.68636 3010 ft 6 kts 310°
2026-05-06 16:01 13.20598 77.68617 3011 ft 6 kts 353°
2026-05-06 16:01 13.20602 77.68617 3011 ft 0 kts 355°
2026-05-06 16:03 13.20604 77.68617 3011 ft 0 kts 356°
2026-05-06 16:04 13.20625 77.68615 3011 ft 5 kts 357°
2026-05-06 16:04 13.20680 77.68626 3012 ft 10 kts 32°
2026-05-06 16:04 13.20716 77.68710 3011 ft 16 kts 85°
2026-05-06 16:04 13.20717 77.68923 3010 ft 68 kts 91°
2026-05-06 16:05 13.20708 77.69761 2999 ft 163 kts 89°
2026-05-06 16:05 13.20753 77.71091 3660 ft 202 kts 88°
2026-05-06 16:05 13.20830 77.72475 5082 ft 201 kts 85°
2026-05-06 16:05 13.21220 77.73875 6018 ft 225 kts 62°
2026-05-06 16:06 13.22159 77.75257 6979 ft 248 kts 57°
2026-05-06 16:06 13.23099 77.76799 7793 ft 270 kts 59°
2026-05-06 16:06 13.24044 77.78448 8201 ft 269 kts 59°
2026-05-06 16:06 13.24986 77.80119 8702 ft 270 kts 59°
2026-05-06 16:07 13.25927 77.81792 9206 ft 272 kts 59°
2026-05-06 16:07 13.26705 77.83555 9675 ft 275 kts 74°
2026-05-06 16:07 13.26833 77.85501 10151 ft 279 kts 95°
2026-05-06 16:07 13.26337 77.87458 10675 ft 284 kts 105°
2026-05-06 16:08 13.25826 77.89401 11175 ft 287 kts 103°
2026-05-06 16:08 13.25335 77.91412 11683 ft 289 kts 102°
2026-05-06 16:08 13.24858 77.93408 12182 ft 292 kts 102°
2026-05-06 16:08 13.24373 77.95438 12685 ft 294 kts 102°
2026-05-06 16:09 13.23886 77.97475 13187 ft 296 kts 102°
2026-05-06 16:09 13.23399 77.99514 13686 ft 298 kts 102°
2026-05-06 16:09 13.22905 78.01577 14188 ft 299 kts 102°
2026-05-06 16:09 13.22407 78.03659 14691 ft 301 kts 102°
2026-05-06 16:10 13.21908 78.05748 15193 ft 303 kts 102°
2026-05-06 16:10 13.21402 78.07860 15697 ft 305 kts 102°
2026-05-06 16:10 13.20899 78.09959 16194 ft 307 kts 102°
2026-05-06 16:10 13.20385 78.12106 16700 ft 309 kts 102°
2026-05-06 16:11 13.19872 78.14248 16963 ft 314 kts 102°
2026-05-06 16:11 13.19351 78.16422 16995 ft 313 kts 102°
2026-05-06 16:11 13.18830 78.18591 16997 ft 311 kts 102°
2026-05-06 16:11 13.18317 78.20731 17001 ft 311 kts 102°
2026-05-06 16:12 13.17798 78.22891 17002 ft 311 kts 102°
2026-05-06 16:12 13.17281 78.25049 17002 ft 311 kts 102°
2026-05-06 16:12 13.16769 78.27180 17002 ft 311 kts 102°
2026-05-06 16:12 13.16258 78.29305 17002 ft 311 kts 102°
2026-05-06 16:13 13.15741 78.31456 17002 ft 311 kts 102°
2026-05-06 16:13 13.15223 78.33610 17002 ft 311 kts 102°
2026-05-06 16:13 13.14707 78.35754 17000 ft 311 kts 102°
2026-05-06 16:13 13.14192 78.37894 16993 ft 310 kts 102°
2026-05-06 16:14 13.13675 78.40041 16993 ft 310 kts 102°
2026-05-06 16:14 13.13154 78.42203 16993 ft 311 kts 102°
2026-05-06 16:14 13.12640 78.44338 16993 ft 311 kts 102°
2026-05-06 16:14 13.12119 78.46501 16993 ft 311 kts 102°
2026-05-06 16:15 13.11603 78.48640 16993 ft 311 kts 102°
2026-05-06 16:15 13.11089 78.50771 16983 ft 311 kts 102°
2026-05-06 16:15 13.10565 78.52940 16972 ft 311 kts 102°
2026-05-06 16:15 13.10049 78.55078 16960 ft 310 kts 102°
2026-05-06 16:16 13.09529 78.57231 16948 ft 310 kts 102°
2026-05-06 16:16 13.09017 78.59353 16936 ft 310 kts 102°
2026-05-06 16:16 13.08501 78.61485 16924 ft 310 kts 102°
2026-05-06 16:16 13.07988 78.63609 16912 ft 310 kts 102°
2026-05-06 16:17 13.07471 78.65745 16900 ft 310 kts 102°
2026-05-06 16:17 13.06949 78.67902 16889 ft 310 kts 102°
2026-05-06 16:17 13.06437 78.70016 16877 ft 310 kts 102°
2026-05-06 16:17 13.05914 78.72174 16865 ft 310 kts 102°
2026-05-06 16:18 13.05397 78.74311 16860 ft 310 kts 102°
2026-05-06 16:18 13.04884 78.76427 16859 ft 310 kts 102°
2026-05-06 16:18 13.04374 78.78531 16859 ft 310 kts 102°
2026-05-06 16:18 13.03860 78.80651 16859 ft 309 kts 102°
2026-05-06 16:19 13.03342 78.82783 16859 ft 309 kts 102°
2026-05-06 16:19 13.02836 78.84869 16859 ft 309 kts 102°
2026-05-06 16:19 13.02317 78.87009 16859 ft 309 kts 102°
2026-05-06 16:19 13.01940 78.88560 16859 ft 309 kts 102°
2026-05-06 16:20 13.01421 78.90695 16859 ft 309 kts 102°
2026-05-06 16:20 13.00901 78.92836 16859 ft 309 kts 102°
2026-05-06 16:20 13.00388 78.94945 16859 ft 309 kts 102°
2026-05-06 16:20 12.99866 78.97092 16859 ft 309 kts 102°
2026-05-06 16:21 12.99349 78.99216 16859 ft 309 kts 102°
2026-05-06 16:21 12.98824 79.01374 16859 ft 310 kts 102°
2026-05-06 16:21 12.98340 79.03506 16846 ft 309 kts 96°
2026-05-06 16:21 12.98268 79.05714 16881 ft 308 kts 88°
2026-05-06 16:22 12.98271 79.07886 16855 ft 309 kts 88°
2026-05-06 16:22 12.98282 79.10077 16859 ft 309 kts 88°
2026-05-06 16:22 12.98295 79.12279 16860 ft 309 kts 88°
2026-05-06 16:22 12.98309 79.14499 16859 ft 310 kts 88°
2026-05-06 16:23 12.98322 79.16684 16859 ft 310 kts 87°
2026-05-06 16:23 12.98336 79.18915 16859 ft 311 kts 87°
2026-05-06 16:23 12.98350 79.21111 16859 ft 311 kts 87°
2026-05-06 16:23 12.98364 79.23341 16859 ft 311 kts 87°
2026-05-06 16:24 12.98377 79.25546 16673 ft 316 kts 87°
2026-05-06 16:24 12.98391 79.27801 16135 ft 315 kts 88°
2026-05-06 16:24 12.98404 79.30018 15632 ft 310 kts 88°
2026-05-06 16:24 12.98417 79.32201 15129 ft 306 kts 88°
2026-05-06 16:25 12.98429 79.34374 14623 ft 302 kts 88°
2026-05-06 16:25 12.98441 79.36412 14148 ft 300 kts 88°
2026-05-06 16:25 12.98453 79.38570 13642 ft 299 kts 88°
2026-05-06 16:25 12.98464 79.40456 13093 ft 305 kts 88°
2026-05-06 16:26 12.98471 79.41739 12772 ft 307 kts 88°
2026-05-06 16:26 12.98481 79.43573 12353 ft 307 kts 88°
2026-05-06 16:26 12.98493 79.45785 11854 ft 308 kts 88°
2026-05-06 16:26 12.98503 79.47958 11366 ft 308 kts 88°
2026-05-06 16:27 12.98515 79.50170 10868 ft 308 kts 88°
2026-05-06 16:27 12.98526 79.52354 10375 ft 308 kts 88°
2026-05-06 16:27 12.98536 79.54528 9884 ft 307 kts 88°
2026-05-06 16:27 12.98547 79.56711 9389 ft 307 kts 88°
2026-05-06 16:28 12.98558 79.58888 8893 ft 306 kts 88°
2026-05-06 16:28 12.98568 79.61060 8396 ft 305 kts 88°
2026-05-06 16:28 12.98578 79.63225 7899 ft 304 kts 89°
2026-05-06 16:28 12.98588 79.65385 7401 ft 303 kts 89°
2026-05-06 16:29 12.98598 79.67545 6903 ft 302 kts 89°
2026-05-06 16:29 12.98607 79.69674 6410 ft 301 kts 89°
2026-05-06 16:29 12.98616 79.71819 5910 ft 300 kts 89°
2026-05-06 16:29 12.98625 79.73957 5410 ft 299 kts 89°
2026-05-06 16:30 12.98464 79.76038 4903 ft 297 kts 99°
2026-05-06 16:30 12.98254 79.77426 4587 ft 296 kts 98°
2026-05-06 16:30 12.97831 79.80216 3915 ft 295 kts 98°
2026-05-06 16:30 12.97439 79.82266 3390 ft 294 kts 109°
2026-05-06 16:31 12.96634 79.84184 2916 ft 292 kts 114°
2026-05-06 16:31 12.95820 79.86068 2416 ft 291 kts 114°
2026-05-06 16:31 12.95006 79.87961 2167 ft 281 kts 114°
2026-05-06 16:31 12.94248 79.89726 2123 ft 266 kts 114°
2026-05-06 16:32 12.93525 79.91413 2112 ft 251 kts 114°
2026-05-06 16:32 12.92842 79.93007 2087 ft 238 kts 114°
2026-05-06 16:32 12.92195 79.94518 2088 ft 225 kts 114°
2026-05-06 16:32 12.91585 79.95942 2141 ft 210 kts 114°
2026-05-06 16:33 12.91294 79.97311 2189 ft 196 kts 80°
2026-05-06 16:33 12.91854 79.98527 2288 ft 184 kts 62°
2026-05-06 16:33 12.92437 79.99714 2303 ft 187 kts 66°
2026-05-06 16:34 12.93472 80.02190 2089 ft 195 kts 69°
2026-05-06 16:34 12.93982 80.03505 1840 ft 197 kts 70°
2026-05-06 16:34 12.94402 80.04607 1810 ft 190 kts 70°
2026-05-06 16:34 12.94863 80.05827 1804 ft 182 kts 70°
2026-05-06 16:35 12.95318 80.07036 1813 ft 183 kts 70°
2026-05-06 16:35 12.95783 80.08273 1646 ft 185 kts 70°
2026-05-06 16:35 12.96242 80.09497 1372 ft 185 kts 70°
2026-05-06 16:35 12.96677 80.10651 1055 ft 164 kts 70°
2026-05-06 16:36 12.97067 80.11691 779 ft 148 kts 71°
2026-05-06 16:36 12.97425 80.12647 589 ft 143 kts 71°
2026-05-06 16:36 12.97781 80.13600 427 ft 146 kts 71°
2026-05-06 16:36 12.98149 80.14581 237 ft 148 kts 71°
2026-05-06 16:37 12.98521 80.15571 53 ft 147 kts 71°
2026-05-06 16:37 12.98863 80.16503 45 ft 117 kts 69°
2026-05-06 16:37 12.99084 80.17084 45 ft 59 kts 68°
2026-05-06 16:37 12.99174 80.17321 44 ft 21 kts 70°
2026-05-06 16:38 12.99194 80.17375 44 ft 4 kts 69°
2026-05-06 16:38 12.99261 80.17556 44 ft 34 kts 69°
2026-05-06 16:38 12.99235 80.17709 47 ft 10 kts 168°
2026-05-06 16:38 12.99218 80.17705 48 ft 0 kts 198°
2026-05-06 16:39 12.99216 80.17705 48 ft 0 kts 198°
2026-05-06 16:39 12.99216 80.17704 48 ft 0 kts 198°
2026-05-06 16:39 12.99214 80.17704 48 ft 0 kts 198°
2026-05-06 16:39 12.99213 80.17704 48 ft 0 kts 186°
2026-05-06 16:40 12.99196 80.17703 48 ft 6 kts 185°
2026-05-06 16:40 12.99138 80.17682 49 ft 11 kts 223°
2026-05-06 16:40 12.99092 80.17593 48 ft 17 kts 247°
2026-05-06 16:40 12.99034 80.17457 47 ft 23 kts 245°
2026-05-06 16:41 12.98978 80.17294 48 ft 26 kts 247°
2026-05-06 16:41 12.98897 80.17116 49 ft 29 kts 246°
2026-05-06 16:41 12.98821 80.16911 48 ft 30 kts 249°
2026-05-06 16:41 12.98726 80.16734 47 ft 22 kts 206°
2026-05-06 16:42 12.98704 80.16733 47 ft 1 kts 152°
2026-05-06 16:42 12.98678 80.16747 48 ft 6 kts 153°
2026-05-06 16:42 12.98629 80.16765 48 ft 7 kts 175°
2026-05-06 16:42 12.98593 80.16744 48 ft 5 kts 229°
2026-05-06 16:43 12.98575 80.16715 48 ft 4 kts 240°
2026-05-06 16:43 12.98560 80.16683 48 ft 5 kts 250°
2026-05-06 16:43 12.98545 80.16640 47 ft 7 kts 242°
2026-05-06 16:43 12.98507 80.16627 48 ft 5 kts 172°
2026-05-06 16:44 12.98472 80.16637 48 ft 0 kts 161°